Regional Weather Roundup
Issued by NWS New Orleans/Baton Rouge, LA

Home | Current Version | Previous Version | Graphics & Text | Print | Product List | Glossary On
Versions: 1 2 3 4 5 6 7 8 9 10 11 12 13 14 15 16 17 18 19 20 21 22 23 24 25 26 27 28 29 30 31 32 33 34 35 36 37 38 39 40 41 42 43 44 45 46 47 48 49 50
486
ASUS44 KLIX 210810
RWRLIX
NEW ORLEANS REGIONAL WEATHER ROUNDUP
NATIONAL WEATHER SERVICE NEW ORLEANS LA
200 AM CST FRI NOV 21 2014

NOTE: "FAIR" INDICATES FEW OR NO CLOUDS BELOW 12,000 FEET WITH NO
      SIGNIFICANT WEATHER AND/OR OBSTRUCTIONS TO VISIBILITY.
      SKY/WX - SKY CONDITION AND SIGNIFICANT WEATHER.
      TMP - AIR TEMPERATURE.     DP    - DEWPOINT TEMPERATURE.
      RH  - RELATIVE HUMIDITY.   PRES  - PRESSURE.
      HI  - HEAT INDEX.          WCI   - WIND CHILL INDEX.

*  THESE STATIONS ARE NOT NWS OR FAA STATIONS AND ARE NOT UNDER
   NWS QUALITY CONTROL.

LAZ038-040-048-061>063-065>067-069-210900-
SOUTHEAST LOUISIANA

CITY           SKY/WX    TMP DP  RH WIND       PRES   REMARKS
N.O. AUDUBON     N/A     53  47  81 MISG        N/A
N.O. INTL ARPT CLEAR     51  44  77 S3        30.24R
N.O. LAKEFRONT CLEAR     52  45  77 S9        30.24S
N.O. DOWNTOWN*   N/A     55  43  62 S5        30.24R
SLIDELL        CLEAR     43  39  86 CALM      30.24S
BATON ROUGE    CLEAR     47  44  90 NE3       30.23R
BOOTHVILLE     CLEAR     52  48  86 CALM      30.26R
BELLE CHASSE   CLEAR     54  45  71 SE3       30.23F
BOGALUSA*        N/A     42  38  89 CALM      30.26R
NEW ROADS*       N/A     49  45  86 CALM      30.23S
GONZALES*        N/A     46  46  99 CALM      30.23S
HAMMOND*       CLEAR     43  39  87 CALM      30.26R
HOUMA*         CLEAR     49  47  94 E3        30.22F
PORT FOURCHON* SUNNY     63  50  63 E12G17    30.25F

$$

MSZ070-080>082-210900-
SOUTHERN MISSISSIPPI

CITY           SKY/WX    TMP DP  RH WIND       PRES   REMARKS
MCCOMB         CLEAR     46  43  89 CALM      30.25R
GULFPORT       CLEAR     42  40  92 CALM      30.26R
BILOXI         CLEAR     45  45 100 CALM      30.26R FOG
PASCAGOULA     CLEAR     37  36  96 CALM      30.25S

$$

COASTAL OBSERVATIONS
LAKE AND NEARSHORE STATIONS

STATION/POSITION TIME  TEMP    WIND        PRES    WAVE
                       AIR SEA DIR/SP/G            HT/PER
                 (UTC) (F)     (DEG/KT/KT) (MB)    (FT/S)
PASCAGOULA       0800   48     120/  2/  3 1023.9
WAVELAND YACHT   0800   50      CALM  /  1 1023.5
GRAND ISLE       0800   62 58  130/  5/  8 1024.1
SOUTHWEST PASS   0800   60 73              1024.3
NEW CANAL        0800   54 53  170/  2/  3 1024.1
SHELL BEACH      0800   53 50  140/  7/  7 1023.9

OFFSHORE STATIONS

STATION/POSITION TIME  TEMP    WIND        PRES    WAVE
                       AIR SEA DIR/SP/G            HT/PER
                 (UTC) (F)     (DEG/KT/KT) (MB)    (FT/S)
64 S DAUPHIN ISL 0745   63 72  100/  8/ 14 1024.7    2/ 5

$$




USA.gov is the U.S. government's official web portal to all federal, state and local government web resources and services.